Retour au catalogue

COSMOS 2251 DEB

ActifLEO
NORAD 36632·DEBRIS·🇷🇺 Russia

Lancé Jun 16, 1993 depuis Plesetsk Cosmodrome

Loading…

Prochains Passages (prochaines 24 heures)

TLE

VieillissantSource: Space-Track

Époque: Sep 9, 2026, 10:40 UTC

1 36632U 93036BEW 26252.44451806  .00001149  00000-0  33980-3 0  9991
2 36632  74.0027 147.9933 0034271 195.0338 164.9804 14.44269142691223

Suivez COSMOS 2251 DEB en temps réel avec AllMySat

Download on the App Store